Pagrindinis puslapis
METAR-TAF:

METAR-TAF

Oro uostai :

Gachsaran, Iranas

platuma: 30-26N, ilguma: 050-46E, Aukštis: 738 m

Dabartinis oras

Ataskaita buvo paskelbta 20 minutes, ne 10:00 UTC
Vėjas 4 kt iš Pietryčių
Temperatūra 17°C
Drėgmė 42%
Slėgis 1013 hPa
Matomumas 10 km arba daugiau
Išsisklaidę debesys ne aukštis 4000 ft
Apsiniaukę ne aukštis 10000 ft

METAR: OIAH 171000Z 13004KT 9999 SCT040 OVC100 17/04 Q1013

Laikas: 13:50 (10:20 UTC)


TAF: trūkstamas

Orai ataskaitas ir orų prognozės (METAR, TAF).

turimą stotys yra geltonos ir raudonos taškus žemėlapyje.

Perkelti pele per norėdami pamatyti stoties vardą.

Tada spustelėkite, norėdami matyti oro stebėjimo ir prognozės.

Norėdami pakeisti žemėlapį: spustelėkite ant žalios mygtukų su juodo kryžiaus žemyn,; žalią mygtuką su brūkšneliu, jei norite nutolinti; arba žalių rodyklių gretimoms žemėlapius.


METAR-TAF: